SCP
0 0 0 0 -0 -0 0 0 0 0 0 0 0 0 0 0 0 0 0 -0 -0 0 0 0 0 0 0 0 0 0 0 0 0 0 0 0 0 0 0 0 0 0 0
0 0 0 0 -0 -0 0 0 0 0 0 0 0 0 0 0 0 0 0 0 0 0 0 0 0 0 0 0 0 0 0 0 0 0 0 0 0 0 0 0 0 0 0
0 0 0 0 -0 -0 0 0 0 0 0 0 0 0 0 0 0 0 0 0 0 0 0 0 0 0 0 0 0 0 0 0 0 0 0 0 0 0 0 0 0 0 0
0 0 0 0 0 -0 0 0 0 0 0 0 0 0 0 0 0 0 0 0 0 0 0 0 0 0 0 0 0 0 0 0 0 0 0 0 0 0 0 0 0 0 0
0 0 0 0 0 0 0 0 0 0 0 0 0 0 0 0 0 0 0 0 0 0 0 0 0 0 0 0 0 0 0 0 0 0 0 0 0 0 0 0 0 0 0
0 0 0 0 0 0 0 0 0 0 0 0 0 0 0 0 0 0 0 0 0 0 0 0 0 0 0 0 0 0 0 0 0 0 0 0 0 0 0 0 0 0 0
0 0 0 0 0 0 0 0 0 0 0 0 0 0 0 0 0 0 0 0 0 0 0 0 0 0 0 0 0 0 0 0 0 0 0 0 0 0 0 0 0 0 0
0 0 0 0 0 0 0 0 0 0 0 0 0 0 0 0 0 0 0 0 0 0 0 0 0 0 0 0 0 0 0 0 0 0 0 0 0 0 0 0 0 0 0
0 0 0 0 0 0 0 0 0 0 0 0 0 0 0 0 0 0 0 0 0 0 0 0 0 0 0 0 0 0 0 0 0 0 0 0 0 0 0 0 0 0 0
0 0 0 0 0 0 0 0 0 0 0 0 0 0 0 0 0 0 0 0 0 0 0 0 0 0 0 0 0 0 0 0 0 0 0 0 0 0 0 0 0 0 0
0 0 0 0 0 0 0 0 0 0 0 0 0 0 0 0 0 0 0 0 0 0 0 0 0 0 0 0 0 0 0 0 0 0 0 0 0 0 0 0 0 0 0
0 0 0 0 0 0 0 0 0 0 0 0 0 0 0 0 0 0 0 0 0 0 0 0 0 0 0 0 0 0 0 0 0 0 0 0 0 0 0 0 0 0 0
0 0 0 0 0 0 0 0 0 0 0 0 0 0 0 0 0 0 0 0 0 0 0 0 0 0 0 0 0 0 0 0 0 0 0 0 0 0 0 0 0 0 0
0 0 0 0 0 0 0 0 0 0 0 0 0 0 0 0 0 0 0 0 0 0 0 0 0 0 0 0 0 0 0 0 0 0 0 0 0 0 0 0 0 0 0
0 0 0 0 0 0 0 0 0 0 0 0 0 0 0 0 0 0 0 0 0 0 0 0 0 0 0 0 0 0 0 0 0 0 0 0 0 0 0 0 0 0 0
0 0 0 0 0 0 0 0 0 0 0 0 0 0 0 0 0 0 0 0 0 0 0 0 0 0 0 0 0 0 0 0 0 0 0 0 0 0 0 0 0 0 0
0 0 0 1 1 1 0 0 0 0 0 0 0 0 0 0 0 0 0 0 0 0 0 0 0 0 0 0 0 0 0 0 0 0 0 0 0 0 0 0 0 0 0
0 0 0 0 1 1 1 1 1 0 0 0 0 0 0 0 0 0 0 0 0 0 0 0 0 0 0 0 0 0 0 0 0 0 0 0 0 0 0 0 0 0 0
0 0 0 0 1 1 1 1 1 1 1 0 0 0 0 0 0 0 0 0 0 0 0 0 0 0 0 0 0 0 0 0 0 0 0 0 0 0 0 0 0 0 0
0 0 0 0 0 1 1 1 1 1 1 1 1 1 0 0 0 0 0 0 0 0 0 0 0 0 0 0 0 0 0 0 0 0 0 0 0 0 0 0 0 0 0
0 0 0 0 0 0 1 1 1 1 1 1 1 1 1 0 0 0 0 0 0 0 0 0 0 0 0 0 0 0 0 0 0 0 0 0 0 0 0 0 0 0 0
0 0 0 0 0 0 0 1 1 1 1 1 1 1 1 1 1 0 0 0 0 0 0 0 0 0 0 0 0 0 0 0 0 0 0 0 0 0 0 0 0 0 0
0 0 0 0 0 0 0 0 1 1 1 1 1 1 1 1 1 1 0 0 0 0 0 0 0 0 0 0 0 0 0 0 0 0 0 0 0 0 0 0 0 0 0
0 0 0 0 0 0 0 0 0 1 1 1 1 1 1 1 1 1 1 1 0 0 0 0 0 0 0 0 0 0 0 0 0 0 0 0 0 0 0 0 0 0 0
0 0 0 0 0 0 0 0 0 0 0 1 1 1 1 1 1 1 1 1 1 0 0 0 0 0 0 0 0 0 0 0 0 0 0 0 0 0 0 0 0 0 0
0 0 0 0 0 0 0 0 0 0 0 0 1 1 1 1 1 1 1 1 1 0 0 0 0 0 0 0 0 0 0 0 0 0 0 0 0 0 0 0 0 0 0
Wind_Speed
10 14 16 14 14 14 14 15 15 14 14 13 13 12 10 8 6 5 4 5 5 7 10 12 13 13 13 12 12 12 12 12 12 11 11 9 9 9 8 6 2 7 7
13 16 16 13 13 13 14 15 15 14 13 13 12 11 9 7 5 4 5 6 7 9 11 13 13 12 12 12 11 11 11 11 11 10 6 7 7 8 7 5 5 6 5
15 16 16 13 12 13 14 15 15 14 13 12 11 10 8 7 6 5 7 8 9 11 12 13 13 12 12 11 11 10 10 10 9 6 2 6 8 6 5 4 4 4 4
14 14 15 14 13 13 14 16 15 14 13 12 11 10 8 7 7 8 9 10 11 12 13 13 12 12 11 10 10 10 9 9 7 1 3 6 6 6 4 3 3 3 3
13 13 14 13 13 13 14 15 15 14 13 12 11 9 8 8 8 9 11 12 13 13 12 12 11 11 10 9 9 9 9 8 3 1 6 5 5 5 5 5 5 4 3
13 13 14 12 12 13 14 14 14 14 13 12 11 9 8 8 9 10 11 11 11 11 11 11 10 9 8 8 8 8 7 5 3 6 5 5 6 7 8 9 9 8 8
13 12 14 11 12 12 13 13 13 13 13 12 11 10 9 8 9 10 9 10 10 10 10 10 9 8 7 7 7 7 6 1 3 5 5 6 9 11 13 13 13 13 14
12 11 12 12 10 10 11 11 12 13 13 12 11 10 9 9 9 9 8 8 8 9 9 9 8 7 6 6 6 6 5 2 3 5 6 8 10 12 13 14 14 14 14
11 11 11 12 11 10 8 8 9 11 12 11 11 10 8 8 9 9 8 8 8 8 8 8 7 7 6 5 5 6 5 0 2 4 5 7 10 13 13 13 13 13 13
9 10 10 10 10 10 10 8 8 9 10 11 10 9 9 8 8 8 8 7 7 7 7 7 7 7 6 5 6 6 6 4 3 4 4 8 10 11 11 11 11 11 11
8 9 9 9 9 8 8 9 9 9 10 11 10 10 9 9 9 8 7 5 5 6 7 7 8 8 7 7 6 6 5 3 4 3 4 9 9 9 9 9 9 10 10
9 9 8 9 9 8 6 7 8 9 10 11 10 11 9 7 6 6 8 4 4 5 6 8 9 8 5 5 6 6 4 4 4 3 5 9 9 9 8 8 8 8 9
9 9 9 9 9 8 6 6 5 6 7 10 11 11 8 7 6 6 6 7 7 7 7 8 8 5 4 3 4 4 3 3 2 3 6 9 9 8 7 7 7 7 7
9 10 10 10 9 9 8 6 7 6 6 7 9 11 9 6 7 6 5 6 6 6 6 6 4 5 5 5 5 5 5 4 3 3 6 8 8 8 7 6 6 6 6
10 10 11 11 10 9 9 7 7 8 8 9 9 10 11 8 8 8 6 6 7 6 7 6 6 6 6 5 5 5 6 6 5 5 5 7 8 8 7 6 5 5 5
11 11 11 13 12 11 10 9 8 8 8 9 9 11 13 10 9 8 8 8 8 7 7 7 7 6 5 5 6 6 6 6 6 6 5 7 7 7 7 6 6 5 5
11 11 12 13 13 14 13 12 9 9 9 9 9 12 14 12 11 10 9 9 9 8 9 7 8 6 5 5 6 6 5 6 6 7 6 5 7 7 7 7 6 5 4
10 11 12 10 13 15 13 12 9 9 10 10 10 10 14 15 14 11 10 10 10 9 8 8 7 7 6 6 6 5 5 5 8 7 7 6 6 6 7 8 7 6 5
10 10 11 12 13 14 14 11 11 10 10 10 10 10 13 16 16 13 11 10 11 9 9 9 8 8 8 7 6 5 5 6 7 7 8 8 7 6 6 8 7 6 5
8 9 10 11 12 13 11 10 9 10 10 10 10 11 14 13 16 14 11 13 12 10 10 10 11 9 7 7 6 5 5 6 6 7 9 8 7 8 8 8 7 6 6
5 6 8 9 10 10 9 10 11 11 11 11 11 14 15 14 15 14 12 13 13 12 13 14 11 11 8 7 6 5 5 7 8 7 8 8 9 9 9 9 7 6 6
4 5 6 7 8 9 9 9 10 11 10 11 10 13 15 16 15 13 16 13 13 12 15 15 14 10 8 9 8 5 6 7 8 9 9 9 10 9 10 10 9 8 6
5 5 5 7 7 8 9 8 8 8 9 9 12 12 15 17 16 15 16 15 13 13 13 16 16 16 11 11 10 8 7 8 6 7 10 9 10 9 9 9 9 8 7
6 6 6 6 6 6 7 8 11 11 12 14 12 12 13 16 16 16 16 16 14 13 14 15 16 15 14 11 9 10 7 4 5 6 6 8 10 10 10 7 8 8 7
7 6 6 6 5 5 5 7 9 11 11 10 11 14 14 13 15 15 16 15 14 13 15 15 15 16 14 14 10 8 9 5 6 5 5 6 7 7 7 8 6 7 7
7 7 7 7 6 6 5 5 8 10 12 12 13 12 12 10 11 15 15 14 14 13 14 15 14 17 15 15 12 9 8 8 9 8 6 5 5 5 6 5 5 5 5
Wind_Direction
154 153 150 153 152 152 150 149 144 139 135 132 129 127 124 121 121 127 135 139 138 132 117 108 100 95 92 90 88 86 83 81 79 74 70 72 80 86 84 75 71 94 77
148 150 146 150 152 153 153 149 141 136 134 132 130 127 124 121 122 127 133 141 139 127 116 108 102 99 97 96 95 94 91 88 84 78 78 93 81 82 85 70 24 70 76
149 148 150 149 152 154 152 144 139 137 136 133 130 126 123 119 113 111 121 128 129 120 112 105 103 101 100 99 98 97 94 90 88 89 169 100 96 89 89 79 71 82 80
150 150 154 147 154 154 149 145 143 141 139 136 131 127 125 121 112 108 106 110 114 110 106 105 104 105 104 102 100 98 96 93 91 202 102 77 87 88 97 94 85 90 84
152 153 143 150 154 153 149 148 148 146 143 139 134 130 129 126 116 108 100 101 103 103 104 105 108 109 106 102 99 99 99 98 119 125 79 74 75 77 84 80 79 81 85
155 154 146 154 152 150 150 151 152 151 147 143 139 135 136 134 123 110 101 100 103 105 107 108 110 111 108 103 100 100 102 115 183 82 79 71 72 85 84 80 76 73 75
157 155 152 153 152 152 155 158 159 157 151 147 145 143 144 141 129 120 112 109 110 112 114 115 116 114 111 106 104 106 110 120 77 85 78 74 74 83 83 78 75 72 70
158 158 154 151 150 153 159 163 167 162 156 153 152 151 149 145 137 131 129 127 126 125 125 125 123 119 114 110 111 115 123 199 112 90 83 80 77 82 80 76 72 69 67
164 165 163 165 162 159 164 170 173 166 160 157 157 154 145 140 143 145 145 145 140 137 133 131 127 122 119 118 120 121 119 259 150 97 90 85 85 82 79 76 73 71 67
174 174 172 174 176 178 179 177 179 168 163 160 158 151 141 142 150 153 164 155 152 144 138 133 128 122 117 117 124 126 134 205 136 127 109 94 90 85 80 77 76 74 71
187 185 182 182 182 186 187 175 186 177 170 167 166 155 163 175 170 172 167 149 163 156 150 143 131 124 122 118 120 134 179 191 148 135 106 101 100 93 87 83 81 79 76
191 195 194 193 190 192 188 188 196 192 185 193 188 179 192 188 179 177 145 176 177 162 158 146 135 146 181 151 139 180 191 180 166 153 114 118 114 104 97 92 89 86 82
198 199 206 206 203 200 196 200 198 197 196 202 200 193 196 191 181 189 177 180 189 185 178 152 171 183 187 167 175 186 179 188 186 158 129 130 126 119 113 106 99 93 88
208 208 210 213 212 212 212 207 207 204 200 203 203 202 200 198 198 195 198 192 193 194 190 192 202 182 187 186 191 184 182 197 193 174 125 135 137 134 129 122 113 104 94
217 215 215 215 216 214 218 221 218 215 210 207 207 207 207 205 205 202 205 201 205 202 196 203 205 193 194 191 194 198 195 197 190 179 139 135 139 144 143 140 132 120 107
225 221 215 215 216 216 217 220 223 222 218 220 212 212 212 213 212 209 211 208 208 206 206 207 208 200 199 198 196 202 203 197 197 190 166 145 138 147 155 156 146 133 118
237 230 223 219 217 217 219 221 225 226 224 222 220 217 215 216 216 213 217 211 210 208 206 209 206 206 201 198 201 202 203 204 200 194 188 175 159 150 165 166 158 147 133
249 241 235 224 223 222 222 221 221 224 226 227 224 222 219 219 217 216 218 216 210 204 202 201 198 200 199 202 202 195 200 201 208 201 192 191 184 174 170 170 169 160 151
255 248 242 234 231 229 226 223 222 224 226 230 229 226 222 220 218 217 219 216 209 205 204 201 203 205 204 202 202 197 202 201 204 203 205 197 193 192 182 160 161 159 164
264 258 251 243 239 238 232 227 224 225 228 229 230 230 228 223 220 220 219 217 209 206 206 203 201 204 209 194 190 199 208 208 209 208 208 200 195 196 199 183 178 167 173
273 262 255 252 245 241 234 227 224 225 226 227 228 230 230 228 222 220 221 217 210 209 208 206 200 200 199 183 180 197 211 219 219 211 211 207 200 199 200 198 202 191 180
299 286 273 261 256 248 241 239 237 235 233 231 228 230 230 228 225 219 221 219 212 213 211 207 201 200 192 188 194 195 211 207 216 215 211 212 208 199 205 205 204 202 200
349 326 301 285 274 264 258 249 245 242 240 236 233 230 228 226 225 221 222 223 216 214 214 209 203 203 198 198 204 200 206 218 183 192 212 210 209 205 206 204 205 201 201
2 346 326 310 291 278 266 251 243 238 237 236 237 237 234 229 226 224 223 224 221 217 218 213 209 211 207 198 207 227 241 252 189 177 193 211 212 212 208 198 199 193 193
359 351 343 336 324 307 280 260 253 248 249 251 249 247 243 236 229 224 222 223 223 220 221 218 212 213 213 206 197 197 212 225 237 212 188 183 201 211 207 199 192 187 184
358 353 346 340 338 334 315 284 261 258 256 255 252 251 248 243 235 228 223 223 223 222 221 221 215 215 216 217 208 200 196 197 205 213 211 178 185 182 191 192 192 184 178